Location: Newark
(30.1000°N, 109.4667°E)
Time: 21:54:48
(UTC+00:00)

Tiros 1 - Visible Passes

Search period start: 17 February 2020 00:00
Search period end: 27 February 2020 00:00
Orbit: 630 x 664 km, 48.4° (Epoch: 16 February)

Date Brightness Start Highest point End Pass type
(mag) Time Alt. Az. Time Alt. Az. Time Alt. Az.
17 Feb 9.4 21:55:06 11° NNW 21:55:15 11° NNW 21:56:41 10° N visible
23 Feb 9.5 22:50:29 10° N 22:52:52 14° NNE 22:55:14 10° NE visible
25 Feb 9.6 22:00:34 10° N 22:02:44 13° NNE 22:04:54 10° NE visible
26 Feb 9.1 22:25:41 10° NNW 22:29:21 23° NNE 22:33:00 10° E visible
